Cold Bay, AK

5:16 AM AKST on November 24, 2017 (GMT -0900)
Cold Bay

Weather History for PACD - November, 2013

Change the Weather History Date:

Saturday, November 9, 2013

  Actual Average Record
Temperature  
Mean Temperature 49 °F 35 °F  
Max Temperature 55 °F 40 °F 55 °F (2013)
Min Temperature 42 °F 31 °F 15 °F (1976)
Degree Days  
Heating Degree Days 16 30  
Month to date heating degree days 188 260  
Since 1 July heating degree days 1898 2367  
Cooling Degree Days 0 0  
Month to date cooling degree days 0 0  
Year to date cooling degree days 0 0  
Moisture  
Dew Point 41 °F    
Average Humidity 74    
Maximum Humidity 85    
Minimum Humidity 61    
Precipitation  
Precipitation 0.18 in 0.15 in 2.75 in (1948)
Month to date precipitation 2.74 1.42  
Year to date precipitation 40.36 33.65  
Snow  
Snow 0.00 in 0.30 in 5.30 in (2005)
Month to date snowfall T 2.2  
Since 1 July snowfall T 4.6  
Since 1 September snowfall 0.0 4.6  
Snow Depth 0.00 in    
Sea Level Pressure  
Sea Level Pressure 30.19 in    
Wind  
Wind Speed 14 mph (South)    
Max Wind Speed 25 mph    
Max Gust Speed 32 mph    
Visibility 10 miles    
Events Rain    
T = Trace of Precipitation, MM = Missing Value Source: NWS Daily Summary

Daily Weather History Graph

Daily Weather History Graph

Search for Another Location

Airport or City:

Trip Planner

Search our weather history database for the weather conditions in past years. The results will help you decide how hot, cold, wet, or windy it might be!

Date:

Astronomy

Nov. 09, 2013 Rise Set
Actual Time 9:12 AM AKST 5:55 PM AKST
Civil Twilight 8:32 AM AKST 6:36 PM AKST
Nautical Twilight 7:48 AM AKST 7:20 PM AKST
Astronomical Twilight 7:05 AM AKST 8:02 PM AKST
Moon 2:44 PM AKST (11/9) No Moon Set
Length of Visible Light 10h 03m
Length of Day
8h 43m
Waxing Crescent, 46% of the Moon is Illuminated
Nov 9
Waxing Crescent
Nov 9
First Quarter
Nov 17
Full
Nov 25
Last Quarter
Dec 2
New

Hourly Weather History & Observations

Time (AKST) Temp. Windchill Dew Point Humidity Pressure Visibility Wind Dir Wind Speed Gust Speed Precip Events Conditions
12:53 AM 46.0 °F 39.6 °F 37.9 °F 73% 30.36 in 10.0 mi WSW 15.0 mph - N/A   Mostly Cloudy
1:53 AM 46.0 °F 43.1 °F 37.0 °F 71% 30.36 in 10.0 mi South 5.8 mph - N/A   Mostly Cloudy
2:53 AM 45.0 °F 40.6 °F 36.0 °F 71% 30.35 in 10.0 mi South 8.1 mph - N/A   Scattered Clouds
3:53 AM 45.0 °F 38.5 °F 37.0 °F 74% 30.34 in 10.0 mi SSE 13.8 mph - N/A   Scattered Clouds
4:53 AM 43.0 °F 37.2 °F 37.0 °F 80% 30.33 in 10.0 mi SSE 10.4 mph - N/A   Scattered Clouds
5:53 AM 43.0 °F 36.0 °F 37.9 °F 82% 30.30 in 10.0 mi SE 13.8 mph - N/A   Scattered Clouds
6:53 AM 44.1 °F 36.2 °F 39.9 °F 85% 30.29 in 9.0 mi SE 18.4 mph - N/A   Scattered Clouds
7:53 AM 43.0 °F 35.4 °F 37.9 °F 82% 30.27 in 10.0 mi SE 16.1 mph - N/A   Scattered Clouds
8:53 AM 46.0 °F 39.6 °F 37.0 °F 71% 30.26 in 10.0 mi SSE 15.0 mph - N/A   Mostly Cloudy
9:53 AM 46.9 °F - 39.0 °F 74% 30.26 in 10.0 mi SSE 18.4 mph - N/A   Mostly Cloudy
10:53 AM 48.0 °F - 41.0 °F 77% 30.24 in 10.0 mi SE 19.6 mph - N/A   Mostly Cloudy
11:53 AM 50.0 °F - 42.1 °F 74% 30.21 in 10.0 mi SE 17.3 mph 25.3 mph N/A   Mostly Cloudy
12:53 PM 50.0 °F - 42.1 °F 74% 30.18 in 10.0 mi SE 21.9 mph 31.1 mph N/A   Mostly Cloudy
1:53 PM 53.1 °F - 44.1 °F 71% 30.16 in 10.0 mi SW 5.8 mph - N/A   Overcast
2:53 PM 52.0 °F - 43.0 °F 71% 30.13 in 10.0 mi South 15.0 mph - N/A   Mostly Cloudy
3:53 PM 52.0 °F - 43.0 °F 71% 30.11 in 10.0 mi South 19.6 mph 28.8 mph N/A   Mostly Cloudy
4:53 PM 52.0 °F - 43.0 °F 71% 30.14 in 10.0 mi SSW 15.0 mph 26.5 mph N/A   Overcast
5:32 PM 51.8 °F - 42.8 °F 71% 30.14 in 10.0 mi SSW 10.4 mph - N/A   Overcast
5:53 PM 51.1 °F - 43.0 °F 74% 30.14 in 10.0 mi SW 16.1 mph - 0.00 in Rain Light Rain
6:04 PM 51.8 °F - 42.8 °F 71% 30.13 in 10.0 mi SW 15.0 mph - 0.00 in   Overcast
6:35 PM 50.0 °F - 42.8 °F 76% 30.12 in 10.0 mi SW 13.8 mph - 0.00 in   Overcast
6:53 PM 51.1 °F - 43.0 °F 74% 30.10 in 10.0 mi WSW 17.3 mph - 0.00 in   Overcast
7:10 PM 50.0 °F - 42.8 °F 76% 30.11 in 10.0 mi SW 12.7 mph - N/A   Overcast
7:53 PM 50.0 °F - 43.0 °F 77% 30.10 in 10.0 mi SSW 13.8 mph 19.6 mph N/A   Overcast
8:53 PM 50.0 °F - 43.0 °F 77% 30.07 in 10.0 mi South 10.4 mph - 0.00 in Rain Light Rain
9:53 PM 48.9 °F - 44.1 °F 83% 30.05 in 7.0 mi SSW 4.6 mph - 0.04 in Rain Rain
10:53 PM 48.9 °F - 43.0 °F 80% 30.04 in 8.0 mi South 8.1 mph - 0.09 in Rain Light Rain
11:53 PM 48.9 °F - 43.0 °F 80% 30.01 in 10.0 mi SW 15.0 mph - 0.04 in Rain Light Rain